Regional Weather Roundup
Issued by NWS Newport/Morehead, NC

Current Version | Previous Version | Graphics & Text | Print | Product List | Glossary Off
Versions: 1 2 3 4 5 6 7 8 9 10 11 12 13 14 15 16 17 18 19 20 21 22 23 24 25 26 27 28 29 30 31 32 33 34 35 36 37 38 39 40 41 42 43 44 45 46 47 48 49 50

000
ASUS42 KMHX 082324
RWRMHX
WEATHER ROUNDUP FOR EASTERN NORTH CAROLINA
NATIONAL WEATHER SERVICE NEWPORT/MOREHEAD CITY NC
600 PM EST THU DEC 08 2016

NOTE: "FAIR" INDICATES FEW OR NO CLOUDS BELOW 12,000 FEET
WITH NO SIGNIFICANT WEATHER AND/OR OBSTRUCTIONS TO VISIBILITY

NCZ015>017-031-032-045>047-102-103-090000-
NORTH COAST

CITY           SKY/WX    TMP DP  RH WIND       PRES   REMARKS
EDENTON        CLOUDY    50  32  50 W6        30.12R
ELIZABETH CITY CLOUDY    46  36  68 W7        30.08R
KITTY HAWK     CLOUDY    49  40  73 NW6       30.07R
MANTEO         CLOUDY    49  37  63 NW9G17    30.09R

$$

NCZ045>047-081-094-103-104-090000-
CENTRAL COAST

CITY           SKY/WX    TMP DP  RH WIND       PRES   REMARKS
FRISCO         CLOUDY    52  41  66 NW14G22   30.07R

$$

NCZ095-097-098-100-101-090000-
SOUTHERN COAST

CITY           SKY/WX    TMP DP  RH WIND       PRES   REMARKS
BEAUFORT       CLEAR     50  37  61 NW9       30.12R
CEDAR ISLAND   NOT AVBL
JACKSONVILLE   PTCLDY    49  29  46 N8        30.13R
PINEY ISLAND   PTCLDY   N/A N/A N/A NW17G23   30.11R
WILMINGTON     PTCLDY    50  34  54 NW12      30.15R


$$

NCZ011>013-027>030-043-044-078>080-089-090>093-098-090000-
COASTAL PLAIN

CITY           SKY/WX    TMP DP  RH WIND       PRES   REMARKS
AHOSKIE        CLOUDY    45  23  41 W5        30.13R
CLINTON        CLOUDY    49  29  44 NW7       30.17R
ELIZABETHTOWN  CLOUDY    49  26  39 CALM      30.17R
GOLDSBORO      CLOUDY    49  22  34 NW6       30.13R
GREENVILLE     CLOUDY    48  28  46 NW7       30.15R
HAVELOCK       PTCLDY    50  28  42 NW14      30.12R
KENANSVILLE    PTCLDY    48  28  46 NW5       30.16R
KINSTON        CLOUDY    48  25  40 NW5       30.15R
NEW BERN       MOCLDY    49  27  42 NW8       30.14R
RICHLANDS      PTCLDY    48  35  60 CALM      30.15R
ROCKY MOUNT    PTCLDY    46  26  45 NW8       30.16R
WASHINGTON     CLOUDY    47  27  47 NW3       30.14R
WHITEVILLE     CLOUDY    50  39  65 CALM      30.16R

$$

AMZ130-135-150-152-154-156-158-170-250-252-270-ANZ085-086-088-633-658-670-090000-
MARINE OBSERVATIONS

STATION/POSITION TIME  TEMP    WIND        PRES    WAVE   SWELL
                       AIR SEA DIR/SP/G            HT/PER HT/PER
                 (UTC) (F)     (DEG/KT/KT) (MB)    (FT/S) (FT/S)
CHESAPEAKE LIGHT NOT AVBL
64 E VA BEACH    2250   51 59  330/ 19/ 23 1016.9    4/ 4   2/ 8
DUCK             2300   49 53  330/  9/ 11 1018.0
2 E DUCK         NOT AVBL
OREGON INLET     2300      55  320/ 12/ 15 1018.3
13E OREGON INLT  NOT AVBL
HATTERAS CG      2300   52 60  320/ 20/ 25 1018.1
DIAMOND BUOY     2250   56 77  320/ 21/ 27 1017.4    5/ 9   3/ 9
CAPE LOOKOUT     2300   52     330/ 13/ 16 1019.6
BEAUFORT LAB     2300   50 55  330/ 10/ 15 1018.6
30 SE NEW RVR IN 2308   57 70  350/ 19/ 27 1019.9
30 SE NEW RVR IN NOT AVBL
27 SE WRIGHTSVLE 2308   57 67  330/ 17/ 23 1019.4
5 SE WRIGHTSVLE  2308   52 61  330/ 17/ 27 1020.4
225 S CAPE HAT   2250   73 74  280/  8/ 10 1016.7    5/10   5/10
41 SE CHARLESTON 2250   63 74  320/ 12/ 16 1019.3    2/ 5   2/ 9

$$




USA.gov is the U.S. government's official web portal to all federal, state and local government web resources and services.